Regional Weather Roundup
Issued by NWS

Home | Current Version | Previous Version | Graphics & Text | Print | Product List | Glossary On
Versions: 1 2 3 4 5 6 7 8 9 10 11 12 13 14 15 16 17 18 19 20 21 22 23 24 25 26 27 28 29 30 31 32 33 34 35 36 37 38 39 40 41 42 43 44 45 46 47 48 49 50
000
ASUS43 KTOP 191359
RWRKS

WEATHER ROUNDUP FOR KANSAS
NATIONAL WEATHER SERVICE GOODLAND KS
900 AM CDT FRI SEP 19 2014

NOTE:  "FAIR" INDICATES FEW OR NO CLOUDS BELOW 12,000 FEET WITH NO
SIGNIFICANT WEATHER AND/OR OBSTRUCTIONS TO VISIBILITY.

KSZ001>006-013>018-027>032-041>047-191500-
NORTHWEST KANSAS

CITY           SKY/WX    TMP DP  RH WIND       PRES   REMARKS
GOODLAND       SUNNY     65  59  81 SW10      29.96R
HAYS           SUNNY     66  57  72 S12       29.97R
HILL CITY      SUNNY     68  62  81 SW9       29.94R
RUSSELL        SUNNY     69  62  78 S13       29.95R
$$

KSZ061>065-074>080-084>089-191500-
SOUTHWEST KANSAS

CITY           SKY/WX    TMP DP  RH WIND       PRES   REMARKS
DODGE CITY     SUNNY     64  58  80 S8        30.00R
ELKHART          N/A     66  59  78 S8          N/A
GARDEN CITY    SUNNY     63  60  90 S9        29.99R
GREAT BEND     SUNNY     68  61  77 S12       29.99R
LIBERAL        SUNNY     64  57  77 SW10      30.02S
$$

KSZ066>073-081>083-090>101-191500-
SOUTHEAST KANSAS

CITY           SKY/WX    TMP DP  RH WIND       PRES   REMARKS
CHANUTE        CLOUDY    65  64  97 S7        30.03R
COFFEYVILLE    CLOUDY    66  64  93 SE6       30.02R
HUTCHINSON     SUNNY     68  64  87 S8        29.99R
NEWTON         SUNNY     66  61  82 S9        30.02R
PARSONS        CLOUDY    66  64  93 S3        30.03S
WICHITA INTL   MOSUNNY   69  65  86 S9        29.99R
WICHITA JABRA  SUNNY     68  65  90 S10       30.00R
WINFIELD       CLOUDY    66  66 100 SE8       30.01F FOG
$$

KSZ007>012-019>026-033>040-048>060-102>105-191500-
NORTHEAST KANSAS

CITY           SKY/WX    TMP DP  RH WIND       PRES   REMARKS
CONCORDIA      SUNNY     67  65  93 S13       29.95F
EMPORIA        FOG       64  64 100 S10       30.01R VSB 1/4
LAWRENCE       FOG       63  62  97 SE7       30.03R VSB 1/4
MANHATTAN      SUNNY     68  65  90 S3        29.98S
OLATHE IND     FOG       62  62 100 SE9       30.04R VSB 3/4
OLATHE EXE     FOG       62  61  96 S8        30.03S VSB 3/4
SALINA         SUNNY     69  64  84 S7        29.98R
TOPEKA BILLARD CLOUDY    65  64  97 SE7       30.01S FOG
TOPEKA FORBES  FOG       64  63  96 S9        30.01S VSB 3/4
$$


USA.gov is the U.S. government's official web portal to all federal, state and local government web resources and services.